Weather History for Melbourne Airport, VC

Change the Weather History Date:

Sunday, February 23, 2014

  Actual Average Record
Temperature  
Mean Temperature 65 °F -  
Max Temperature 75 °F 73 °F 95 °F (2006)
Min Temperature 55 °F 53 °F 50 °F (1998)
Growing Degree Days 15 (Base 50)    
Moisture  
Dew Point 50 °F    
Average Humidity 61    
Maximum Humidity 88    
Minimum Humidity 26    
Precipitation  
Precipitation 0.00 in 0.05 in - ()
Sea Level Pressure  
Sea Level Pressure 30.18 in    
Wind  
Wind Speed 7 mph ()    
Max Wind Speed 14 mph    
Max Gust Speed -    
Visibility 8.1 miles    
Events      
Averages and records for this station are not official NWS values.
T = Trace of Precipitation, MM = Missing Value Source: Averaged Metar Reports

Daily Weather History Graph

Daily Weather History Graph

Search for Another Location

Airport:

Trip Planner

Search our weather history database for the weather conditions in past years. The results will help you decide how hot, cold, wet, or windy it might be!

Date:

Astronomy

Feb. 23, 2014 Rise Set
Actual Time 6:58 AM AEDT 8:09 PM AEDT
Civil Twilight 6:31 AM AEDT 8:36 PM AEDT
Nautical Twilight 5:59 AM AEDT 9:08 PM AEDT
Astronomical Twilight 5:25 AM AEDT 9:41 PM AEDT
Moon 12:15 AM AEDT (2/23) 2:44 PM AEDT (2/23)
Length of Visible Light 14h 04m
Length of Day
13h 10m
Waning Gibbous, 46% of the Moon is Illuminated
Feb 23
Waning Gibbous
Mar 1
New
Mar 9
First Quarter
Mar 17
Full
Mar 24
Last Quarter

Hourly Weather History & Observations

Time (AEDT) Temp. Dew Point Humidity Pressure Visibility Wind Dir Wind Speed Gust Speed Precip Events Conditions
12:00 AM 58 °F 49 °F 62% 30.26 in 16 mi ESE 9.2 mph - -   Haze
12:00 AM 59.0 °F 48.2 °F 67% 30.24 in 6.2 mi ESE 9.2 mph - N/A   Mostly Cloudy
12:30 AM 59.0 °F 48.2 °F 67% 30.24 in 6.2 mi SE 9.2 mph - N/A   Mostly Cloudy
1:00 AM 58 °F 49 °F 62% 30.25 in - ESE 6.9 mph - -  
1:00 AM 59.0 °F 48.2 °F 67% 30.24 in 6.2 mi ESE 6.9 mph - N/A   Mostly Cloudy
1:30 AM 59.0 °F 48.2 °F 67% 30.24 in 6.2 mi East 5.8 mph - N/A   Mostly Cloudy
2:00 AM 58 °F 49 °F 62% 30.24 in - SE 9.2 mph - -  
2:00 AM 59.0 °F 48.2 °F 67% 30.24 in 6.2 mi SE 9.2 mph - N/A   Mostly Cloudy
2:30 AM 57.2 °F 48.2 °F 72% 30.24 in 6.2 mi SE 8.1 mph - N/A   Mostly Cloudy
3:00 AM 57 °F 49 °F 68% 30.24 in 16 mi ESE 6.9 mph - -   Haze
3:00 AM 57.2 °F 50.0 °F 77% 30.24 in 6.2 mi ESE 6.9 mph - N/A   Mostly Cloudy
3:30 AM 57.2 °F 48.2 °F 72% 30.21 in 6.2 mi ESE 6.9 mph - N/A   Mostly Cloudy
4:00 AM 57 °F 49 °F 66% 30.23 in - East 5.8 mph - -  
4:00 AM 57.2 °F 48.2 °F 72% 30.21 in 6.2 mi East 5.8 mph - N/A   Mostly Cloudy
4:30 AM 57.2 °F 48.2 °F 72% 30.21 in 6.2 mi ESE 5.8 mph - N/A   Mostly Cloudy
5:00 AM 55 °F 49 °F 76% 30.22 in - SE 5.8 mph - -  
5:00 AM 55.4 °F 50.0 °F 82% 30.21 in 6.2 mi SE 5.8 mph - N/A   Mostly Cloudy
5:30 AM 55.4 °F 50.0 °F 82% 30.21 in 6.2 mi South 2.3 mph - N/A   Mostly Cloudy
6:00 AM 57 °F 49 °F 67% 30.22 in 12 mi East 4.6 mph - -   Haze
6:00 AM 57.2 °F 50.0 °F 77% 30.21 in 6.2 mi East 4.6 mph - N/A   Mostly Cloudy
6:30 AM 57.2 °F 48.2 °F 72% 30.21 in 6.2 mi East 6.9 mph - N/A   Mostly Cloudy
7:00 AM 56 °F 49 °F 72% 30.22 in - South 3.5 mph - -  
7:00 AM 55.4 °F 50.0 °F 82% 30.21 in 6.2 mi South 3.5 mph - N/A   Mostly Cloudy
7:30 AM 57.2 °F 50.0 °F 77% 30.21 in 6.2 mi SSE 6.9 mph - N/A   Mostly Cloudy
8:00 AM 57 °F 50 °F 70% 30.23 in - South 4.6 mph - -  
8:00 AM 57.2 °F 50.0 °F 77% 30.21 in 6.2 mi South 4.6 mph - N/A   Scattered Clouds
8:30 AM 59.0 °F 48.2 °F 67% 30.21 in 6.2 mi SE 9.2 mph - N/A   Partly Cloudy
9:00 AM 61 °F 48 °F 52% 30.23 in 12 mi SE 6.9 mph - -   Haze
9:00 AM 60.8 °F 48.2 °F 63% 30.24 in 6.2 mi SE 6.9 mph - N/A   Partly Cloudy
9:30 AM 62.6 °F 48.2 °F 59% 30.24 in 6.2 mi SSE 8.1 mph - N/A   Partly Cloudy
10:00 AM 64 °F 48 °F 45% 30.23 in - SSE 6.9 mph - -  
10:00 AM 64.4 °F 48.2 °F 56% 30.24 in 6.2 mi SSE 6.9 mph - N/A   Partly Cloudy
10:30 AM 64.4 °F 48.2 °F 56% 30.21 in 6.2 mi SE 6.9 mph - N/A   Partly Cloudy
11:00 AM 65 °F 47 °F 42% 30.22 in - South 6.9 mph - -  
11:00 AM 64.4 °F 48.2 °F 56% 30.21 in - South 6.9 mph - N/A   Clear
11:30 AM 66.2 °F 46.4 °F 49% 30.21 in - SSE 8.1 mph - N/A   Clear
12:00 PM 67 °F 47 °F 37% 30.20 in 16 mi SSW 6.9 mph - -   Haze
12:00 PM 68.0 °F 46.4 °F 46% 30.18 in - SSW 6.9 mph - N/A   Clear
12:30 PM 69.8 °F 46.4 °F 43% 30.18 in - East 6.9 mph - N/A   Clear
1:00 PM 70 °F 46 °F 31% 30.17 in - SSE 6.9 mph - -  
1:00 PM 69.8 °F 46.4 °F 43% 30.18 in - SSE 6.9 mph - N/A   Clear
1:30 PM 71.6 °F 46.4 °F 41% 30.15 in - ESE 4.6 mph - N/A   Clear
2:00 PM 73 °F 47 °F 28% 30.15 in - SE 9.2 mph - -  
2:00 PM 73.4 °F 46.4 °F 38% 30.15 in - SE 9.2 mph - N/A   Clear
2:30 PM 73.4 °F 46.4 °F 38% 30.12 in - South 6.9 mph - N/A   Clear
3:00 PM 75 °F 47 °F 26% 30.13 in 16 mi South 8.1 mph - -   Haze
3:00 PM 75.2 °F 48.2 °F 38% 30.12 in - South 8.1 mph - N/A   Clear
3:30 PM 75.2 °F 46.4 °F 36% 30.12 in - South 10.4 mph - N/A   Clear
4:00 PM 75 °F 49 °F 28% 30.11 in - SSE 11.5 mph - -  
4:00 PM 75.2 °F 48.2 °F 38% 30.09 in - SSE 11.5 mph - N/A   Clear
4:30 PM 73.4 °F 50.0 °F 44% 30.09 in - SSE 12.7 mph - N/A   Clear
5:00 PM 73 °F 52 °F 37% 30.10 in - SSE 13.8 mph - -  
5:00 PM 73.4 °F 51.8 °F 47% 30.09 in - SSE 13.8 mph - N/A   Clear
5:30 PM 71.6 °F 53.6 °F 53% 30.09 in - South 12.7 mph - N/A   Clear
6:00 PM 71 °F 53 °F 43% 30.10 in 12 mi South 12.7 mph - -   Smoke
6:00 PM 71.6 °F 53.6 °F 53% 30.09 in - South 12.7 mph - N/A   Clear
6:30 PM 69.8 °F 53.6 °F 56% 30.09 in - South 12.7 mph - N/A   Clear
7:00 PM 68 °F 53 °F 48% 30.11 in - South 10.4 mph - -  
7:00 PM 68.0 °F 53.6 °F 60% 30.09 in - South 10.4 mph - N/A   Clear
7:30 PM 66.2 °F 53.6 °F 64% 30.09 in - South 11.5 mph - N/A   Clear
8:00 PM 64 °F 54 °F 61% 30.11 in - South 10.4 mph - -  
8:00 PM 64.4 °F 53.6 °F 68% 30.12 in - South 10.4 mph - N/A   Clear
8:30 PM 62.6 °F 53.6 °F 72% 30.12 in - South 8.1 mph - N/A   Clear
9:00 PM 61 °F 55 °F 73% 30.12 in 9 mi SSW 6.9 mph - -   Smoke
9:00 PM 60.8 °F 55.4 °F 82% 30.12 in - SSW 6.9 mph - N/A   Clear
9:30 PM 60.8 °F 55.4 °F 82% 30.12 in - SSW 6.9 mph - N/A   Clear
10:00 PM 60 °F 55 °F 78% 30.14 in - SW 6.9 mph - -  
10:00 PM 59.0 °F 55.4 °F 88% 30.15 in - SW 6.9 mph - N/A   Clear
10:30 PM 59.0 °F 55.4 °F 88% 30.15 in - WSW 6.9 mph - N/A   Clear
11:00 PM 59 °F 54 °F 79% 30.16 in - SW 6.9 mph - -  
11:00 PM 59.0 °F 53.6 °F 82% 30.15 in 6.2 mi SW 6.9 mph - N/A   Partly Cloudy
11:30 PM 57.2 °F 53.6 °F 88% 30.15 in 6.2 mi West 8.1 mph - N/A   Partly Cloudy